DateTimeUTC,F1_A11,F1_S11,BsB_S11,BsG_S11,BsR_S11,BbsB_S11,BbsG_S11,BbsR_S11,BaB_A11,BaG_A11,BaR_A11,Tu_S11,T_S11,Uu_S11,U_S11,P_S11,T1_A11
2021-12-22T04:00:00Z,00000200,21000000,,,,,,,0000.32,-000.02,-000.21,20.7,27.6,,00.0,0667.5,31.4
2021-12-22T04:01:00Z,00000200,21000000,,,,,,,-000.29,0000.39,0000.12,20.7,27.6,,00.0,0667.5,31.4
2021-12-22T04:02:00Z,00000200,21000000,,,,,,,-000.11,-000.35,-000.06,20.7,27.6,,00.0,0667.5,31.4
2021-12-22T04:03:00Z,00000200,61000000,,,,,,,-000.02,-000.40,0000.09,20.8,27.7,,00.0,0667.5,31.4
2021-12-22T04:04:00Z,00000200,41000000,0000.17,-000.17,0000.21,0000.53,0000.27,0000.18,-000.39,0000.08,-000.38,21.0,27.6,,00.0,0668.3,31.4
2021-12-22T04:05:00Z,00000200,01000000,0000.90,0000.44,0000.24,-000.27,-000.05,0000.26,0000.44,0000.01,0000.08,21.0,27.5,,00.0,0668.4,31.4
2021-12-22T04:06:00Z,00000200,01000000,-000.09,-000.06,-000.23,0000.83,0000.43,0000.17,-000.27,-000.29,0000.03,20.9,27.5,,00.0,0668.4,31.4
2021-12-22T04:07:00Z,00000200,01000000,0000.18,0000.41,-000.18,0000.74,0000.46,-000.19,0000.01,0000.35,-000.01,20.8,27.4,,00.0,0668.4,31.4
2021-12-22T04:08:00Z,00000200,01000000,0001.33,-000.22,0000.30,-000.10,0000.14,0000.14,0000.25,-000.01,-000.18,20.8,27.4,,00.0,0668.4,31.3
2021-12-22T04:09:00Z,00000200,01000000,0000.44,-000.22,-000.17,-000.02,0000.07,-000.15,0000.06,0000.18,0000.26,20.7,27.3,,00.0,0668.4,31.3
2021-12-22T04:10:00Z,00000200,01000000,0000.01,0000.11,-000.02,0000.38,0000.03,0000.35,-000.31,-000.49,-000.38,20.7,27.3,,00.0,0668.4,31.3
2021-12-22T04:11:00Z,00000200,01000000,0000.60,0000.11,0000.05,0000.09,-000.20,-000.04,-000.20,0000.28,0000.08,20.6,27.3,,00.0,0668.3,31.3
2021-12-22T04:12:00Z,00000200,01000000,0000.40,0000.18,0000.22,-000.01,-000.07,-000.23,0000.16,0000.08,0000.11,20.7,27.2,,00.0,0668.5,31.3
2021-12-22T04:13:00Z,00000200,01000000,-000.69,0000.02,0000.19,0000.15,0000.04,0000.19,-000.17,-000.27,-000.10,20.7,27.2,,00.0,0668.4,31.3
2021-12-22T04:14:00Z,00000200,01000000,0000.82,-000.24,0000.25,-000.60,0000.19,0000.27,-000.23,-000.18,-000.10,20.8,27.3,,00.0,0668.4,31.3
2021-12-22T04:15:00Z,00000200,01000000,-000.23,0000.14,-000.11,0000.37,0000.15,0000.53,0000.24,0000.21,-000.19,20.9,27.3,,00.0,0668.4,31.3
2021-12-22T04:16:00Z,00000200,01000000,-000.16,0000.27,0000.32,0000.03,-000.27,0000.04,0000.13,0000.14,0000.29,20.9,27.3,,00.0,0668.4,31.3
2021-12-22T04:17:00Z,00000200,01000000,0001.03,-000.14,0000.22,0000.64,0000.17,0000.33,-000.28,-000.41,-000.04,21.0,27.3,,00.0,0668.4,31.3
2021-12-22T04:18:00Z,00000200,01000000,-000.11,-000.22,-000.10,-000.18,-000.04,-000.12,0000.27,-000.22,0000.06,21.0,27.3,,00.0,0668.4,31.3
2021-12-22T04:19:00Z,00000200,01000000,-000.25,-000.15,0000.11,0000.07,0000.09,-000.24,-000.17,0000.56,-000.22,21.1,27.4,,00.0,0668.3,31.4
2021-12-22T04:20:00Z,00000200,01000000,-000.06,0000.15,0000.02,0000.00,0000.40,0000.03,0000.25,-000.29,0000.19,21.1,27.4,,00.0,0668.3,31.4
2021-12-22T04:21:00Z,00000200,01000000,0000.15,0000.10,0000.03,-000.53,0000.21,0000.08,0000.28,0000.56,0000.46,21.1,27.4,,00.0,0668.3,31.4
2021-12-22T04:22:00Z,00000200,01000000,-000.23,0000.34,0000.35,-000.21,0000.36,-000.00,0000.22,0000.13,0000.06,21.0,27.4,,00.0,0668.2,31.4
2021-12-22T04:23:00Z,00000200,01000000,0000.11,0000.25,0000.15,0000.58,0000.17,-000.05,0000.29,0000.35,0000.14,21.0,27.4,,00.0,0668.2,31.3
2021-12-22T04:24:00Z,00000200,01000000,0000.15,0000.08,0000.32,0000.79,-000.07,0000.24,0000.11,0000.35,0000.20,20.9,27.4,,00.0,0668.1,31.3
2021-12-22T04:25:00Z,00000200,01000000,0000.35,0000.17,0000.42,0000.02,0000.13,0000.26,-000.08,0000.03,0000.01,20.8,27.3,,00.0,0668.1,31.3
2021-12-22T04:26:00Z,00000200,01000000,-000.76,-000.04,0000.42,0000.52,-000.01,0000.38,0000.40,0000.12,0000.41,20.8,27.3,,00.0,0668.1,31.3
2021-12-22T04:27:00Z,00000200,01000000,-000.67,0000.03,0000.42,-000.09,0000.23,0000.41,0000.36,0000.17,-000.17,20.9,27.3,,00.0,0668.2,31.3
2021-12-22T04:28:00Z,00000200,01000000,0000.26,0000.18,0000.31,0000.77,0000.10,0000.15,0000.20,0000.20,0000.50,20.9,27.3,,00.0,0668.2,31.3
2021-12-22T04:29:00Z,00000200,01000000,0000.39,0000.09,0000.14,-000.05,-000.03,0000.06,0000.37,0000.18,-000.07,21.0,27.3,,00.0,0668.2,31.3
2021-12-22T04:30:00Z,00000200,01000000,0000.46,0000.10,0000.19,0000.78,0000.14,0000.02,-000.27,0000.20,0000.09,21.0,27.3,,00.0,0668.2,31.3
2021-12-22T04:31:00Z,00000200,01000000,-000.14,0000.31,0000.16,0000.86,0000.08,0000.15,0000.10,0000.29,0000.18,21.1,27.3,,00.0,0668.2,31.3
2021-12-22T04:32:00Z,00000200,01000000,-000.30,0000.35,-000.36,0000.48,0000.30,0000.21,0000.37,-000.01,0000.17,21.1,27.4,,00.0,0668.2,31.3
2021-12-22T04:33:00Z,00000200,01000000,0000.01,-000.08,0000.10,0000.02,0000.29,0000.27,0000.07,0000.19,0000.20,21.2,27.4,,00.0,0668.3,31.4
2021-12-22T04:34:00Z,00000200,01000000,0000.34,0000.19,0000.25,-000.32,0000.14,0000.37,-000.02,-000.22,-000.41,21.2,27.4,,00.0,0668.2,31.4
2021-12-22T04:35:00Z,00000200,01000000,0000.65,0000.13,0000.37,0000.23,0000.02,0000.12,-000.00,-000.03,0000.05,21.2,27.5,,00.0,0668.2,31.4
2021-12-22T04:36:00Z,00000200,01000000,0001.01,-000.15,0000.49,0000.85,-000.32,0000.04,0000.36,0000.04,0000.17,21.1,27.5,,00.0,0668.3,31.4
2021-12-22T04:37:00Z,00000200,01000000,0000.12,0000.24,0000.09,-000.09,0000.14,0000.12,-000.23,-000.17,0000.09,21.1,27.4,,00.0,0668.3,31.4
2021-12-22T04:38:00Z,00000200,01000000,0001.01,0000.14,0000.38,0000.37,0000.46,-000.08,0000.23,0000.42,-000.21,21.0,27.4,,00.0,0668.2,31.3
2021-12-22T04:39:00Z,00000200,01000000,0000.25,0000.05,0000.39,0000.78,0000.25,0000.06,0000.12,0000.10,0000.34,20.9,27.4,,00.0,0668.2,31.3
2021-12-22T04:40:00Z,00000200,01000000,-000.39,-000.03,-000.13,0000.48,0000.11,-000.16,-000.42,-000.23,-000.30,20.9,27.3,,00.0,0668.2,31.3
2021-12-22T04:41:00Z,00000200,01000000,0000.24,0000.18,-000.24,0000.55,-000.01,-000.03,-000.04,0000.01,0000.04,20.9,27.3,,00.0,0668.2,31.3
2021-12-22T04:42:00Z,00000200,01000000,-000.26,-000.14,-000.00,-000.05,-000.11,0000.21,-000.06,-000.10,-000.01,20.9,27.3,,00.0,0668.2,31.3
2021-12-22T04:43:00Z,00000200,01000000,-000.16,0000.09,0000.24,0000.10,0000.18,0000.53,0000.24,-000.01,-000.31,20.9,27.3,,00.0,0668.2,31.3
2021-12-22T04:44:00Z,00000200,01000000,-000.15,-000.09,0000.18,0000.40,0000.16,0000.33,0000.01,0000.11,0000.42,21.0,27.3,,00.0,0668.2,31.3
2021-12-22T04:45:00Z,00000200,01000000,0000.96,0000.10,0000.11,0000.36,0000.17,0000.18,-000.14,0000.02,-000.02,21.1,27.4,,00.0,0668.3,31.3
2021-12-22T04:46:00Z,00000200,01000000,-000.14,-000.05,-000.04,0000.68,0000.05,0000.06,-000.05,-000.04,-000.28,21.1,27.4,,00.0,0668.2,31.3
2021-12-22T04:47:00Z,00000200,01000000,0000.01,-000.08,0000.07,0000.45,0000.52,-000.01,-000.07,-000.12,0000.46,21.2,27.4,,00.0,0668.3,31.4
2021-12-22T04:48:00Z,00000200,01000000,-000.28,-000.06,-000.21,0000.30,-000.21,-000.06,-000.36,-000.09,-000.69,21.2,27.4,,00.0,0668.3,31.4
2021-12-22T04:49:00Z,00000200,01000000,0000.54,0000.10,0000.20,0000.32,0000.31,0000.17,-000.05,-000.08,0000.10,21.3,27.5,,00.0,0668.4,31.4
2021-12-22T04:50:00Z,00000200,01000000,0000.08,0000.10,0000.06,0000.11,0000.19,-000.01,0000.05,-000.49,-000.15,21.3,27.5,,00.0,0668.5,31.4
2021-12-22T04:51:00Z,00000200,01000000,-000.05,-000.04,0000.17,0000.50,-000.18,0000.06,-000.23,0000.09,-000.23,21.2,27.5,,00.0,0668.6,31.4
2021-12-22T04:52:00Z,00000200,01000000,0000.28,-000.10,0000.19,0000.38,-000.16,-000.04,-000.28,-000.35,-000.19,21.1,27.4,,00.0,0668.5,31.4
2021-12-22T04:53:00Z,00000200,01000000,0000.45,-000.04,0000.22,0000.32,0000.16,0000.11,-000.01,-000.03,-000.05,21.0,27.4,,00.0,0668.5,31.3
2021-12-22T04:54:00Z,00000200,01000000,-000.45,0000.11,-000.24,-000.04,0000.36,-000.02,-000.41,-000.30,-000.01,21.0,27.4,,00.0,0668.5,31.3
2021-12-22T04:55:00Z,00000200,01000000,0000.83,-000.05,0000.39,0000.46,0000.01,0000.30,-000.17,-000.02,-000.31,20.9,27.3,,00.0,0668.5,31.3
2021-12-22T04:56:00Z,00000200,01000000,-000.39,-000.11,0000.31,-000.27,0000.14,-000.08,-000.07,0000.18,0000.07,20.9,27.3,,00.0,0668.5,31.3
2021-12-22T04:57:00Z,00000200,41000000,,,,,,,0001.36,0000.49,0001.16,20.9,27.3,,00.0,0668.5,31.3
2021-12-22T04:58:00Z,00000200,61000000,,,,,,,-000.45,-000.14,-000.56,20.7,27.4,,00.0,0667.5,31.3
2021-12-22T04:59:00Z,00000200,21000000,,,,,,,-000.53,-000.41,0000.00,20.7,27.5,,00.0,0667.5,31.3
